Location: Buttermere
(51.3333°N, 1.5167°W)
Time: 11:59:10
(UTC+00:00)

SL-14 R/B - Pass Details

Date: 18 September 2020
Orbit: 519 x 554 km, 82.4° (Epoch: 23 October)

Event Time Altitude Azimuth Distance (km) Brightness Sun altitude
Rises 20:45:56 0° 349° (NNW) 2,672 7.5 -23.2°
Reaches altitude 10° 20:48:05 10° 349° (N) 1,782 6.5 -23.5°
Enters shadow 20:51:28 66° 347° (NNW) 587 3.5 -23.9°
